Wind_Speed
20 18 17 18 19 18 16 16 16 15 14 14 13 13 12 11 10 10 9 9 9 8 8 8 8 8 9 9 9 10 10 10 10 11 11 11 11 11 10 11 10 9 9 9 9 8 8 7 6
19 18 17 18 19 17 17 17 16 16 15 15 15 14 13 13 12 11 10 10 9 8 8 8 8 8 9 9 9 9 9 10 10 10 11 11 11 10 10 10 10 9 9 8 8 8 7 6 6
19 18 18 19 18 17 17 17 16 15 15 15 15 15 14 14 13 12 12 11 10 9 9 9 9 9 9 9 9 9 9 9 9 9 10 10 10 10 10 9 9 9 8 7 7 7 7 6 6
18 18 19 18 18 18 17 17 16 16 15 15 15 15 14 14 13 13 12 11 10 10 9 9 8 8 9 9 9 9 9 9 9 9 9 9 10 9 9 9 8 8 8 8 7 7 6 6 6
17 19 19 17 17 17 17 17 17 16 15 15 15 15 14 13 13 12 12 11 10 9 9 8 8 7 8 9 9 9 9 8 9 9 9 9 9 9 9 8 8 7 7 7 7 7 6 6 5
17 18 17 16 16 16 16 16 16 16 15 15 14 14 13 12 12 11 11 10 9 8 8 8 8 7 8 8 9 9 8 9 9 9 8 8 8 8 8 8 8 7 6 7 6 6 6 6 6
15 16 16 15 15 15 16 16 15 15 15 15 13 12 12 12 11 10 10 9 9 8 7 7 7 7 7 7 8 8 8 8 9 8 8 8 8 8 8 8 8 7 6 6 6 6 5 5 5
14 16 15 15 15 15 15 15 15 14 14 13 13 13 11 11 10 9 8 8 8 8 7 6 6 6 6 6 6 7 7 7 7 7 7 7 8 8 8 8 7 7 7 6 6 5 5 5 4
14 15 14 14 14 14 14 14 14 13 13 12 12 12 11 11 10 9 8 7 7 6 6 6 6 6 5 4 4 5 5 6 6 7 7 6 7 7 7 7 7 7 6 6 5 5 4 4 3
13 13 12 13 12 12 12 13 12 12 12 12 11 11 10 10 9 9 8 7 6 6 6 6 6 5 4 3 3 3 4 5 5 6 6 6 7 7 7 7 7 7 6 6 5 5 4 4 3
11 11 11 11 11 11 11 11 11 11 11 10 10 10 9 9 8 8 7 6 6 6 6 5 5 4 3 3 2 2 3 4 5 6 6 7 7 6 6 6 7 6 6 6 5 4 4 3 3
10 10 10 10 9 9 9 9 9 9 9 9 8 8 8 7 7 7 6 6 5 5 5 5 4 3 2 2 1 1 3 4 4 5 6 6 6 6 6 6 6 7 6 6 5 5 4 3 3
8 8 8 8 8 8 8 7 8 8 8 8 8 7 7 7 6 6 6 5 5 4 5 4 4 3 3 2 2 2 3 3 4 5 6 6 6 5 5 5 6 6 6 5 5 5 4 4 4
6 6 6 6 6 6 6 6 6 7 7 7 7 7 7 7 5 5 5 4 4 4 4 4 3 3 3 3 2 2 2 3 4 5 5 6 6 6 5 5 5 5 5 5 5 5 5 5 5
5 5 4 4 4 5 5 5 5 5 6 6 7 7 7 7 5 5 4 4 3 3 3 3 3 3 3 2 2 2 2 3 4 4 5 5 5 5 6 5 5 5 5 5 5 5 5 5 5
3 3 2 2 3 3 4 4 4 5 5 5 6 7 7 6 5 4 4 3 3 3 3 3 3 3 2 1 1 2 2 3 3 4 4 4 4 4 5 5 5 5 5 6 6 6 6 6 6
0 0 1 2 2 2 3 3 4 5 5 5 5 6 6 6 5 5 4 4 3 4 4 4 3 3 2 2 1 1 2 3 3 3 4 3 3 4 4 5 5 5 5 6 7 7 7 7 7
3 2 2 3 3 3 3 3 4 5 5 5 6 6 6 6 6 5 5 4 4 4 4 3 2 3 2 1 1 0 1 2 3 3 3 2 2 2 3 4 4 5 5 5 6 7 7 7 7
5 4 4 5 5 4 4 4 5 5 6 5 6 6 7 6 6 6 6 5 5 5 4 4 3 3 2 1 1 1 1 2 2 3 3 2 1 2 2 2 3 3 3 3 4 5 6 6 6
6 6 7 7 7 6 6 6 6 6 6 6 6 6 7 6 6 7 7 7 6 6 5 4 4 3 3 2 2 2 2 2 3 3 3 3 3 2 2 2 3 4 4 4 4 4 5 6 6
8 8 9 9 8 8 7 8 8 7 7 7 7 7 7 7 7 7 7 7 7 7 6 6 5 5 4 3 4 3 3 3 4 4 4 4 4 4 4 4 4 4 5 5 5 5 6 7 8
10 10 10 10 9 9 7 8 10 8 8 8 8 8 8 8 8 8 7 8 7 7 7 7 6 6 6 5 4 5 5 5 5 5 5 5 5 5 5 5 6 6 6 7 7 7 7 8 9
12 12 11 11 10 10 9 9 11 10 9 8 8 8 8 9 9 9 8 9 8 8 7 7 7 7 7 6 5 6 6 6 6 6 6 6 6 7 7 7 7 8 8 8 8 8 8 8 9
13 13 12 11 11 12 12 10 11 11 10 9 9 9 9 9 9 9 9 9 9 9 9 9 8 8 8 8 8 7 7 8 7 7 8 8 8 8 8 8 8 9 9 9 9 9 9 9 10
14 13 12 12 12 13 14 13 13 12 11 11 11 11 11 10 10 10 10 10 10 10 10 9 9 10 10 10 10 9 9 9 9 9 8 9 9 10 10 10 10 10 10 10 10 11 11 11 11
16 15 14 14 14 14 15 14 14 14 12 12 12 12 12 12 12 12 12 11 12 12 11 11 11 11 12 11 11 11 11 11 11 11 11 11 11 12 12 12 12 11 11 12 12 12 13 12 13
18 17 17 17 17 16 16 17 16 15 14 13 13 13 14 13 13 14 14 14 14 13 13 13 14 14 14 14 14 13 13 13 13 14 14 14 14 14 14 14 14 14 13 13 13 14 14 15 15
20 19 18 17 18 18 17 17 17 16 15 15 14 14 15 16 16 16 16 16 16 16 15 15 15 16 16 16 16 16 16 16 16 16 16 16 16 16 16 16 16 16 16 16 16 16 16 17 17
21 21 21 20 19 18 18 18 18 18 17 17 17 17 17 18 18 17 18 17 17 17 17 17 17 16 17 17 18 18 17 18 18 18 18 18 18 18 18 17 17 17 18 18 18 18 18 18 19
23 23 23 22 22 21 20 21 20 19 18 18 18 18 19 19 19 18 18 18 17 17 17 17 17 17 18 18 19 20 20 20 20 20 21 20 20 20 19 19 19 19 20 20 20 20 20 20 20
Wind_Direction
85 85 85 89 85 86 89 89 89 89 85 83 83 88 93 93 93 95 94 92 92 95 96 102 111 119 125 127 127 127 130 135 136 136 134 134 136 129 122 122 127 132 130 124 127 128 126 126 123
83 82 86 89 89 90 89 88 88 87 85 83 82 85 90 89 90 91 90 88 92 99 99 101 105 116 125 128 128 129 132 136 139 138 137 137 135 133 129 130 129 129 128 124 127 131 128 123 119
85 83 88 89 92 91 89 87 87 84 83 81 81 83 86 86 86 87 88 87 91 97 96 100 103 113 121 124 125 128 133 137 137 138 140 141 140 139 135 132 129 126 125 124 128 131 131 123 123
85 87 87 89 91 89 85 83 83 81 80 80 81 82 83 84 84 85 86 85 86 88 92 99 103 112 122 125 126 129 134 139 139 139 142 144 144 143 138 136 134 133 128 126 130 130 131 129 129
86 87 85 87 88 88 84 81 79 79 78 80 80 80 81 82 82 82 83 84 87 87 90 95 100 112 124 127 130 130 131 137 141 140 137 141 144 143 142 139 138 140 136 129 129 130 133 131 132
85 85 88 87 87 86 85 80 77 77 77 77 78 77 78 80 80 79 81 81 83 86 92 96 100 108 121 125 128 129 129 130 134 135 139 146 147 148 145 142 140 138 136 137 135 135 134 132 136
85 85 88 90 88 85 82 79 76 77 76 74 75 75 78 79 79 78 78 79 79 82 87 92 97 105 107 116 125 127 129 131 134 134 138 146 149 149 149 145 142 139 138 139 139 136 134 137 141
89 85 86 89 88 84 82 78 77 77 76 74 72 72 74 76 76 76 77 77 79 79 78 84 91 95 99 109 122 130 133 137 139 140 143 148 152 149 150 150 148 145 144 140 139 139 144 146 147
89 87 86 88 87 85 83 79 78 77 74 71 68 70 71 70 71 73 74 76 82 81 78 83 87 90 92 103 114 131 135 141 146 145 146 149 152 151 153 155 154 153 151 148 144 147 149 147 143
89 91 91 89 87 85 83 80 79 77 72 70 69 68 68 69 68 71 72 73 77 79 79 83 79 82 84 87 103 127 139 148 153 151 151 151 150 153 158 160 161 162 160 157 155 152 157 158 155
89 92 91 90 88 85 84 81 78 75 70 67 65 64 61 61 62 64 66 70 76 74 68 65 69 77 73 67 87 122 143 149 157 154 150 152 152 158 165 169 173 173 171 167 165 163 158 161 166
88 90 91 88 84 83 81 79 75 72 66 63 61 58 53 53 54 54 56 64 66 65 59 60 63 59 41 43 66 115 140 147 161 162 161 162 166 171 173 176 179 181 179 178 176 176 174 177 176
88 89 90 84 76 71 69 71 65 59 60 58 54 50 44 39 45 46 49 63 60 56 49 47 44 41 46 73 81 96 133 153 165 171 171 174 179 182 184 184 184 185 185 185 189 194 198 207 212
94 91 89 78 69 63 58 60 55 50 47 46 41 37 30 25 33 43 46 56 50 43 37 34 32 34 47 65 72 98 126 145 161 170 177 183 189 194 193 193 191 194 195 199 205 211 216 229 232
100 86 75 67 59 52 47 45 46 44 42 38 34 28 23 28 38 37 36 45 39 29 26 26 28 28 46 54 60 84 124 135 146 159 174 188 197 202 200 199 203 206 208 214 220 221 233 242 249
101 74 50 37 48 43 34 24 20 27 25 24 22 17 14 23 26 23 24 19 18 5 5 7 13 8 23 44 66 90 114 131 139 155 163 176 193 207 209 207 213 220 227 231 229 229 237 241 249
152 125 318 334 4 16 16 1 355 2 4 4 2 0 358 359 3 3 359 359 355 349 350 352 5 359 359 26 71 105 149 160 161 161 163 165 182 197 211 213 221 232 237 238 239 238 240 240 248
233 255 293 298 311 335 345 340 331 340 349 352 351 345 338 336 337 336 337 335 332 334 335 335 344 348 349 17 81 136 177 177 184 186 178 179 174 186 206 218 229 239 249 252 246 246 247 248 254
243 262 284 286 298 314 324 323 320 323 332 339 340 338 333 325 320 318 319 319 314 311 307 301 310 322 301 286 294 295 221 206 206 209 205 210 204 206 221 222 228 232 241 248 254 254 252 254 257
254 263 278 286 294 300 306 309 309 316 321 323 325 326 326 324 320 318 312 310 307 304 303 291 287 291 293 262 260 265 269 259 241 245 245 240 241 247 253 245 246 246 250 257 261 264 265 263 264
255 261 269 281 289 292 298 305 308 307 312 313 313 313 315 316 314 315 309 305 301 299 294 287 286 283 290 278 261 259 265 269 262 256 255 253 254 257 258 258 266 269 264 265 266 269 273 273 272
257 262 270 279 284 284 287 292 298 303 307 306 307 310 307 306 307 308 305 302 298 292 286 282 279 282 280 277 272 261 262 266 263 262 261 261 263 266 266 264 267 270 267 270 272 271 275 278 277
256 263 269 274 277 279 285 285 289 294 301 304 304 306 304 302 303 305 301 296 292 283 281 281 277 278 273 268 271 271 268 269 269 268 268 268 270 273 274 272 269 272 273 274 275 274 277 279 280
259 265 270 275 279 279 279 278 279 287 292 296 300 303 302 302 301 301 299 294 289 283 279 279 275 277 275 269 268 270 273 270 270 274 271 271 276 278 277 276 275 278 278 278 277 275 278 282 283
259 264 272 276 279 279 277 272 272 279 284 290 293 296 297 299 298 298 294 290 285 281 278 274 272 272 272 268 267 264 269 267 268 271 272 271 273 275 277 280 280 282 278 277 278 277 277 280 283
259 258 259 266 273 279 276 270 274 275 277 283 285 288 289 292 292 291 291 287 286 284 274 271 273 273 271 268 265 267 268 266 266 269 270 271 272 273 278 280 280 280 280 281 283 280 276 279 281
258 258 260 265 269 271 273 274 273 275 275 280 283 285 288 285 285 283 284 285 285 286 277 272 272 271 269 266 265 268 266 266 266 267 269 271 273 273 277 282 279 279 281 283 285 285 277 277 280
258 261 262 261 267 271 276 278 276 275 276 277 277 280 283 283 281 280 281 283 283 283 281 274 272 269 265 264 265 267 268 268 268 267 268 270 273 274 276 280 279 277 279 283 286 286 280 278 279
261 261 261 261 262 266 272 274 276 274 276 276 274 273 277 279 279 277 279 282 283 281 280 277 273 270 266 264 265 267 269 269 267 268 269 270 272 274 276 277 281 279 280 283 284 284 281 279 278
262 263 264 265 267 268 269 271 275 277 276 276 275 272 273 275 275 276 277 279 280 280 280 279 275 271 268 266 266 267 269 269 268 268 268 269 270 272 274 277 278 279 278 280 282 283 280 279 279
Height
5899 5899 5899 5899 5899 5900 5899 5898 5897 5897 5896 5895 5894 5893 5893 5893 5894 5895 5892 5890 5890 5889 5889 5888 5888 5888 5888 5888 5889 5889 5890 5890 5890 5891 5891 5892 5892 5893 5893 5894 5895 5895 5896 5897 5898 5898 5899 5899 5899
5902 5901 5902 5902 5903 5903 5902 5901 5900 5899 5898 5897 5896 5895 5894 5894 5894 5894 5892 5892 5891 5891 5890 5890 5889 5889 5889 5890 5890 5890 5891 5891 5892 5892 5893 5893 5894 5894 5895 5896 5897 5897 5898 5898 5899 5899 5900 5900 5900
5904 5904 5905 5905 5905 5905 5904 5903 5902 5901 5900 5899 5898 5897 5897 5896 5895 5895 5894 5894 5893 5892 5892 5891 5891 5891 5891 5891 5892 5892 5892 5892 5893 5893 5894 5895 5895 5895 5896 5897 5898 5898 5899 5899 5900 5900 5901 5901 5901
5907 5908 5908 5909 5907 5907 5906 5905 5904 5902 5902 5901 5900 5899 5898 5898 5897 5897 5896 5895 5895 5894 5893 5893 5892 5892 5892 5892 5893 5893 5893 5893 5894 5894 5895 5896 5896 5897 5897 5898 5899 5899 5900 5901 5901 5901 5902 5902 5903
5910 5910 5911 5911 5910 5909 5908 5907 5906 5905 5904 5903 5902 5901 5900 5900 5899 5898 5898 5897 5896 5896 5895 5895 5894 5894 5893 5893 5894 5894 5894 5894 5895 5895 5895 5896 5897 5898 5898 5899 5900 5900 5901 5902 5902 5903 5903 5903 5904
5913 5913 5915 5914 5913 5912 5910 5909 5908 5907 5906 5905 5904 5903 5902 5901 5901 5900 5899 5899 5898 5897 5897 5896 5896 5895 5895 5895 5895 5895 5895 5895 5896 5896 5897 5897 5898 5899 5899 5900 5901 5901 5902 5902 5903 5904 5904 5904 5904
5916 5916 5916 5916 5915 5914 5913 5912 5911 5909 5908 5907 5906 5905 5904 5903 5902 5902 5901 5900 5900 5899 5898 5898 5897 5897 5896 5896 5896 5896 5896 5897 5897 5898 5898 5898 5899 5900 5900 5901 5902 5902 5903 5903 5904 5904 5905 5905 5905
5918 5919 5919 5918 5918 5917 5916 5914 5913 5912 5911 5910 5908 5907 5906 5905 5904 5903 5903 5902 5901 5901 5900 5900 5899 5899 5898 5897 5897 5897 5897 5897 5898 5899 5899 5899 5900 5900 5901 5902 5902 5903 5903 5904 5904 5905 5906 5906 5906
5920 5923 5921 5921 5920 5919 5918 5916 5915 5914 5913 5911 5910 5909 5908 5907 5906 5905 5904 5904 5903 5902 5902 5901 5900 5900 5899 5899 5898 5898 5898 5898 5898 5899 5900 5900 5900 5901 5902 5902 5903 5904 5904 5905 5905 5906 5906 5906 5906
5923 5924 5923 5922 5921 5920 5919 5918 5917 5916 5915 5913 5912 5911 5909 5908 5907 5907 5906 5905 5904 5904 5903 5903 5902 5901 5900 5899 5899 5899 5899 5899 5899 5900 5900 5901 5901 5902 5902 5903 5904 5905 5905 5905 5906 5906 5906 5906 5906
5925 5925 5924 5924 5923 5922 5921 5920 5919 5918 5917 5916 5914 5913 5911 5910 5909 5908 5907 5906 5906 5905 5905 5904 5903 5902 5901 5900 5900 5899 5899 5899 5899 5900 5900 5901 5902 5902 5903 5904 5904 5905 5905 5906 5906 5906 5907 5907 5906
5927 5926 5926 5925 5925 5924 5923 5922 5921 5920 5919 5917 5916 5914 5913 5912 5910 5909 5909 5908 5907 5906 5906 5905 5904 5903 5902 5901 5900 5899 5899 5899 5900 5900 5901 5901 5902 5903 5903 5904 5904 5905 5905 5906 5906 5906 5907 5907 5907
5929 5928 5927 5927 5926 5925 5924 5924 5923 5921 5920 5918 5917 5916 5914 5913 5912 5911 5910 5909 5909 5908 5907 5906 5905 5903 5902 5901 5900 5899 5899 5899 5899 5900 5901 5901 5902 5903 5903 5904 5904 5905 5905 5906 5906 5906 5906 5907 5907
5930 5929 5929 5928 5927 5927 5926 5925 5924 5922 5921 5920 5918 5917 5916 5914 5913 5912 5911 5910 5909 5909 5908 5907 5906 5904 5903 5902 5901 5900 5899 5899 5899 5900 5901 5901 5902 5903 5903 5904 5904 5905 5905 5905 5906 5906 5906 5906 5906
5931 5931 5931 5929 5929 5928 5927 5926 5925 5923 5922 5920 5919 5918 5916 5915 5914 5913 5912 5911 5910 5909 5908 5907 5906 5905 5904 5903 5902 5901 5900 5900 5900 5900 5901 5901 5902 5903 5903 5904 5904 5905 5905 5905 5905 5905 5905 5906 5906
5932 5932 5932 5931 5929 5929 5930 5928 5925 5924 5922 5921 5920 5918 5917 5915 5914 5913 5912 5911 5910 5910 5909 5908 5907 5905 5904 5903 5902 5901 5901 5901 5901 5901 5901 5902 5902 5903 5903 5903 5904 5904 5904 5904 5905 5905 5905 5905 5905
5933 5933 5933 5932 5930 5929 5929 5928 5926 5924 5923 5922 5920 5919 5917 5916 5915 5914 5913 5912 5911 5910 5909 5908 5907 5906 5904 5903 5902 5902 5902 5901 5901 5901 5902 5902 5902 5902 5902 5903 5903 5903 5904 5904 5904 5904 5904 5904 5904
5933 5933 5932 5931 5930 5929 5928 5927 5926 5924 5923 5922 5921 5919 5918 5916 5915 5914 5913 5912 5911 5910 5909 5908 5907 5906 5905 5904 5903 5903 5902 5902 5902 5902 5902 5902 5902 5902 5903 5903 5903 5903 5903 5903 5903 5903 5903 5903 5903
5931 5931 5931 5930 5929 5929 5928 5927 5926 5924 5923 5922 5920 5919 5917 5916 5915 5914 5913 5912 5910 5910 5909 5908 5907 5906 5905 5905 5904 5903 5903 5903 5902 5902 5902 5902 5902 5903 5903 5903 5902 5902 5902 5902 5902 5902 5901 5901 5901
5929 5930 5930 5929 5928 5927 5927 5926 5925 5924 5923 5921 5920 5919 5917 5916 5915 5914 5912 5911 5910 5909 5908 5907 5907 5906 5905 5904 5904 5903 5903 5903 5902 5902 5902 5902 5902 5902 5902 5902 5902 5902 5902 5901 5901 5901 5900 5900 5900
5927 5927 5927 5927 5926 5926 5926 5926 5924 5923 5922 5921 5919 5918 5917 5915 5914 5913 5912 5910 5909 5908 5907 5907 5906 5905 5905 5904 5903 5903 5903 5903 5902 5902 5902 5902 5902 5902 5902 5901 5901 5901 5901 5901 5900 5900 5899 5899 5898
5925 5925 5925 5924 5925 5925 5925 5925 5923 5922 5921 5919 5918 5917 5916 5914 5913 5912 5911 5910 5909 5907 5906 5905 5905 5904 5904 5903 5903 5902 5902 5902 5902 5901 5901 5901 5901 5901 5901 5900 5900 5900 5900 5900 5899 5898 5898 5898 5897
5922 5922 5922 5922 5922 5923 5923 5923 5922 5920 5919 5918 5916 5915 5914 5913 5912 5911 5909 5908 5907 5906 5905 5905 5904 5903 5903 5903 5902 5902 5902 5901 5901 5901 5900 5900 5900 5900 5899 5899 5899 5898 5898 5898 5897 5897 5896 5896 5895
5918 5919 5920 5920 5920 5921 5920 5920 5920 5918 5917 5916 5915 5914 5913 5911 5910 5909 5908 5907 5905 5904 5904 5903 5902 5902 5901 5901 5901 5901 5900 5900 5900 5899 5899 5899 5899 5898 5898 5897 5897 5896 5896 5896 5895 5895 5894 5894 5893
5916 5918 5919 5919 5920 5919 5917 5917 5917 5915 5914 5914 5913 5912 5910 5909 5908 5907 5906 5905 5903 5902 5901 5900 5900 5900 5900 5899 5899 5899 5898 5898 5898 5897 5897 5897 5896 5896 5895 5895 5895 5894 5894 5893 5893 5892 5892 5891 5891
5912 5914 5916 5917 5917 5916 5914 5913 5913 5912 5911 5910 5910 5909 5908 5907 5906 5905 5903 5902 5901 5900 5899 5898 5898 5897 5897 5897 5897 5896 5896 5895 5895 5895 5894 5894 5894 5893 5893 5892 5892 5892 5891 5890 5890 5889 5889 5888 5888
5908 5909 5911 5912 5911 5911 5911 5910 5909 5908 5907 5907 5906 5905 5904 5903 5903 5902 5901 5900 5898 5897 5896 5896 5895 5894 5894 5894 5893 5893 5893 5892 5892 5892 5891 5891 5890 5890 5889 5889 5889 5888 5888 5887 5886 5885 5885 5884 5884
5903 5904 5906 5907 5906 5907 5907 5906 5905 5904 5903 5903 5902 5901 5901 5899 5899 5898 5897 5896 5895 5894 5893 5892 5891 5891 5890 5890 5889 5889 5889 5888 5888 5888 5888 5887 5887 5886 5886 5885 5884 5884 5884 5883 5882 5881 5881 5880 5880
5898 5899 5899 5900 5901 5902 5903 5904 5900 5899 5899 5898 5898 5897 5896 5895 5894 5893 5892 5892 5890 5889 5888 5887 5887 5886 5886 5886 5885 5885 5884 5884 5884 5884 5883 5883 5883 5882 5881 5881 5880 5879 5879 5878 5878 5877 5877 5876 5875
5892 5893 5894 5895 5894 5895 5896 5899 5895 5894 5893 5893 5892 5891 5891 5890 5889 5888 5888 5887 5886 5885 5884 5883 5882 5882 5881 5881 5881 5880 5880 5879 5879 5879 5878 5878 5878 5877 5877 5876 5875 5875 5874 5873 5873 5872 5871 5870 5870